|
NORAD ID: 22444 Int'l Code: 1992-093EM
Perigee: 826.7 km
Apogee: 942.0 km
Inclination: 71.3 °
Period: 102.5 minutes
Semi major axis: 7255 km
Launch date: December 25, 1992
Source: Commonwealth of Independent States (former USSR) (CIS)
Note: This is SATELLITE DEBRIS
Two Line Element Set (TLE):
1 22444U 92093EM 13141.81689081 .00000572 00000-0 37300-3 0 3804
2 22444 071.3233 270.3880 0079490 105.7111 047.1757 14.04795709 41552
Source:
NASA's NSSDC Master Catalog entry for SL-16 DEB
|